Weather History for Taos, NM

Change the Weather History Date:

Tuesday, January 7, 2014

  Actual Average Record
Temperature  
Mean Temperature 22 °F -  
Max Temperature 37 °F 40 °F 53 °F (2006)
Min Temperature 6 °F 10 °F -5 °F (2000)
Degree Days  
Heating Degree Days 44    
Moisture  
Dew Point 3 °F    
Average Humidity 52    
Maximum Humidity 85    
Minimum Humidity 17    
Precipitation  
Precipitation 0.00 in - - ()
Sea Level Pressure  
Sea Level Pressure 30.18 in    
Wind  
Wind Speed 4 mph (North)    
Max Wind Speed 9 mph    
Max Gust Speed -    
Visibility 10 miles    
Events      
Averages and records for this station are not official NWS values.
T = Trace of Precipitation, MM = Missing Value Source: NWS Daily Summary

Daily Weather History Graph

Daily Weather History Graph

Search for Another Location

Airport:

Trip Planner

Search our weather history database for the weather conditions in past years. The results will help you decide how hot, cold, wet, or windy it might be!

Date:

Astronomy

Jan. 07, 2014 Rise Set
Actual Time 7:14 AM MST 5:03 PM MST
Civil Twilight 6:46 AM MST 5:31 PM MST
Nautical Twilight 6:14 AM MST 6:03 PM MST
Astronomical Twilight 5:43 AM MST 6:35 PM MST
Moon 11:17 AM MST (1/7) No Moon Set
Length of Visible Light 10h 45m
Length of Day
9h 48m
Waxing Crescent, 46% of the Moon is Illuminated
Jan 7
Waxing Crescent
Jan 7
First Quarter
Jan 15
Full
Jan 23
Last Quarter
Jan 30
New

Hourly Weather History & Observations

Time (MST) Temp. Windchill Dew Point Humidity Pressure Visibility Wind Dir Wind Speed Gust Speed Precip Events Conditions
12:15 AM 8.6 °F -2.6 °F -18.4 °F 28% 30.30 in 10.0 mi North 6.9 mph - N/A   Clear
12:35 AM 10.4 °F -0.4 °F -14.8 °F 31% 30.29 in 10.0 mi North 6.9 mph - N/A   Clear
12:55 AM 10.4 °F 2.2 °F -11.2 °F 37% 30.28 in 10.0 mi NNE 4.6 mph - N/A   Clear
1:15 AM 10.4 °F 2.2 °F -9.4 °F 41% 30.28 in 10.0 mi East 4.6 mph - N/A   Clear
1:35 AM 8.6 °F 2.0 °F -5.8 °F 52% 30.28 in 10.0 mi NNW 3.5 mph - N/A   Clear
1:55 AM 8.6 °F - -2.2 °F 62% 30.28 in 10.0 mi Calm Calm - N/A   Clear
2:15 AM 10.4 °F 0.8 °F -2.2 °F 57% 30.28 in 10.0 mi North 5.8 mph - N/A   Clear
2:35 AM 8.6 °F -1.3 °F -2.2 °F 62% 30.28 in 10.0 mi North 5.8 mph - N/A   Clear
2:55 AM 8.6 °F -2.6 °F -2.2 °F 62% 30.28 in 10.0 mi North 6.9 mph - N/A   Clear
3:15 AM 6.8 °F -3.5 °F -4.0 °F 61% 30.28 in 10.0 mi North 5.8 mph - N/A   Clear
3:35 AM 8.6 °F -2.6 °F -2.2 °F 62% 30.27 in 10.0 mi NNE 6.9 mph - N/A   Clear
3:55 AM 8.6 °F 0.1 °F -2.2 °F 62% 30.28 in 10.0 mi North 4.6 mph - N/A   Clear
4:15 AM 8.6 °F -1.3 °F -4.0 °F 57% 30.28 in 10.0 mi North 5.8 mph - N/A   Clear
4:35 AM 6.8 °F -4.8 °F -2.2 °F 67% 30.28 in 10.0 mi NNE 6.9 mph - N/A   Clear
4:55 AM 6.8 °F -0.1 °F -2.2 °F 67% 30.27 in 10.0 mi North 3.5 mph - N/A   Clear
5:15 AM 6.8 °F -5.9 °F -4.0 °F 61% 30.27 in 10.0 mi North 8.1 mph - N/A   Clear
5:35 AM 6.8 °F -5.9 °F -4.0 °F 61% 30.27 in 10.0 mi NNE 8.1 mph - N/A   Clear
5:55 AM 8.6 °F 0.1 °F -2.2 °F 62% 30.27 in 10.0 mi North 4.6 mph - N/A   Clear
6:15 AM 6.8 °F -2.0 °F -0.4 °F 72% 30.27 in 10.0 mi North 4.6 mph - N/A   Clear
6:35 AM 6.8 °F -2.0 °F -2.2 °F 67% 30.26 in 10.0 mi North 4.6 mph - N/A   Clear
6:55 AM 6.8 °F -3.5 °F -2.2 °F 67% 30.26 in 10.0 mi North 5.8 mph - N/A   Clear
7:15 AM 6.8 °F -3.5 °F -2.2 °F 67% 30.26 in 10.0 mi North 5.8 mph - N/A   Clear
7:35 AM 8.6 °F 2.0 °F -0.4 °F 67% 30.26 in 10.0 mi North 3.5 mph - N/A   Clear
7:55 AM 10.4 °F 4.0 °F -2.2 °F 57% 30.27 in 10.0 mi North 3.5 mph - N/A   Clear
8:15 AM 12.2 °F 6.1 °F -2.2 °F 53% 30.27 in 10.0 mi North 3.5 mph - N/A   Clear
8:35 AM 14.0 °F 6.5 °F 1.4 °F 57% 30.27 in 10.0 mi NE 4.6 mph - N/A   Clear
8:55 AM 15.8 °F - 1.4 °F 53% 30.27 in 10.0 mi Calm Calm - N/A   Clear
9:15 AM 15.8 °F - 3.2 °F 58% 30.27 in 10.0 mi Calm Calm - N/A   Clear
9:35 AM 17.6 °F - 1.4 °F 49% 30.27 in 10.0 mi Calm Calm - N/A   Clear
9:55 AM 19.4 °F 12.8 °F -14.8 °F 21% 30.26 in 10.0 mi North 4.6 mph - N/A   Clear
10:15 AM 23.0 °F 17.0 °F -14.8 °F 18% 30.26 in 10.0 mi North 4.6 mph - N/A   Clear
10:35 AM 24.8 °F 19.1 °F -9.4 °F 22% 30.25 in 10.0 mi North 4.6 mph - N/A   Clear
10:55 AM 28.4 °F 24.6 °F -5.8 °F 23% 30.23 in 10.0 mi North 3.5 mph - N/A   Clear
11:15 AM 30.2 °F - -4.0 °F 23% 30.22 in 10.0 mi Calm Calm - N/A   Clear
11:35 AM 30.2 °F - -2.2 °F 25% 30.20 in 10.0 mi Calm Calm - N/A   Clear
11:55 AM 30.2 °F - -0.4 °F 27% 30.18 in 8.0 mi Calm Calm - N/A   Clear
12:15 PM 33.8 °F - 6.8 °F 32% 30.17 in 10.0 mi Calm Calm - N/A   Clear
12:35 PM 33.8 °F - -7.6 °F 17% 30.15 in 10.0 mi Calm Calm - N/A   Clear
12:55 PM 35.6 °F - 1.4 °F 24% 30.13 in 10.0 mi Calm Calm - N/A   Clear
1:15 PM 37.4 °F - 5.0 °F 26% 30.13 in 10.0 mi Calm Calm - N/A   Clear
1:35 PM 35.6 °F - 6.8 °F 30% 30.12 in 10.0 mi Calm Calm - N/A   Clear
1:55 PM 37.4 °F - 8.6 °F 30% 30.12 in 10.0 mi Calm Calm - N/A   Clear
2:15 PM 37.4 °F - 8.6 °F 30% 30.11 in 10.0 mi Calm Calm - N/A   Clear
2:35 PM 37.4 °F - 10.4 °F 33% 30.10 in 10.0 mi Calm Calm - N/A   Clear
2:55 PM 35.6 °F - 8.6 °F 33% 30.10 in 10.0 mi Calm Calm - N/A   Partly Cloudy
3:15 PM 35.6 °F - 10.4 °F 35% 30.09 in 10.0 mi Calm Calm - N/A   Mostly Cloudy
3:35 PM 37.4 °F - 10.4 °F 33% 30.09 in 10.0 mi Calm Calm - N/A   Scattered Clouds
3:55 PM 35.6 °F 30.7 °F 12.2 °F 38% 30.09 in 10.0 mi North 5.8 mph - N/A   Partly Cloudy
4:15 PM 35.6 °F 31.7 °F 10.4 °F 35% 30.09 in 10.0 mi North 4.6 mph - N/A   Partly Cloudy
4:35 PM 33.8 °F 30.8 °F 10.4 °F 38% 30.08 in 10.0 mi North 3.5 mph - N/A   Mostly Cloudy
4:55 PM 33.8 °F - 12.2 °F 41% 30.08 in 10.0 mi Calm Calm - N/A   Mostly Cloudy
5:15 PM 30.2 °F - 14.0 °F 51% 30.07 in 10.0 mi Calm Calm - N/A   Overcast
5:35 PM 30.2 °F - 12.2 °F 47% 30.07 in 10.0 mi Calm Calm - N/A   Overcast
5:55 PM 28.4 °F 23.3 °F 14.0 °F 55% 30.09 in 10.0 mi NNW 4.6 mph - N/A   Scattered Clouds
6:15 PM 26.6 °F 19.1 °F 15.8 °F 64% 30.08 in 10.0 mi NNE 6.9 mph - N/A   Mostly Cloudy
6:35 PM 26.6 °F 22.6 °F 14.0 °F 59% 30.08 in 10.0 mi NNE 3.5 mph - N/A   Mostly Cloudy
6:55 PM 26.6 °F 22.6 °F 15.8 °F 64% 30.08 in 10.0 mi ENE 3.5 mph - N/A   Mostly Cloudy
7:15 PM 26.6 °F 22.6 °F 17.6 °F 69% 30.07 in 10.0 mi ENE 3.5 mph - N/A   Mostly Cloudy
7:35 PM 24.8 °F 17.9 °F 17.6 °F 74% 30.07 in 10.0 mi ESE 5.8 mph - N/A   Scattered Clouds
7:55 PM 24.8 °F 19.1 °F 17.6 °F 74% 30.07 in 10.0 mi ESE 4.6 mph - N/A   Clear
8:15 PM 21.2 °F - 14.0 °F 74% 30.06 in 10.0 mi Calm Calm - N/A   Clear
8:35 PM 21.2 °F 14.9 °F 10.4 °F 63% 30.07 in 10.0 mi North 4.6 mph - N/A   Clear
8:55 PM 19.4 °F 12.8 °F 12.2 °F 74% 30.07 in 10.0 mi NNE 4.6 mph - N/A   Clear
9:15 PM 19.4 °F 14.3 °F 10.4 °F 68% 30.07 in 10.0 mi NNE 3.5 mph - N/A   Clear
9:35 PM 17.6 °F 6.4 °F 10.4 °F 73% 30.06 in 10.0 mi North 9.2 mph - N/A   Clear
9:55 PM 17.6 °F 8.2 °F 10.4 °F 73% 30.07 in 10.0 mi North 6.9 mph - N/A   Clear
10:15 PM 15.8 °F 7.2 °F 10.4 °F 79% 30.07 in 10.0 mi North 5.8 mph - N/A   Clear
10:35 PM 15.8 °F 7.2 °F 8.6 °F 73% 30.07 in 10.0 mi North 5.8 mph - N/A   Clear
10:55 PM 15.8 °F - 10.4 °F 79% 30.07 in 10.0 mi Calm Calm - N/A   Clear
11:15 PM 15.8 °F - 10.4 °F 79% 30.07 in 10.0 mi Calm Calm - N/A   Clear
11:35 PM 12.2 °F 2.9 °F 6.8 °F 79% 30.07 in 10.0 mi North 5.8 mph - N/A   Clear
11:55 PM 12.2 °F -0.2 °F 8.6 °F 85% 30.06 in 10.0 mi North 9.2 mph - N/A   Clear